Tracking 28926 objects as of 23-May-2024
HD Live streaming from Space Station
objects crossing your sky now

THOR ABLESTAR DEB

Track THOR ABLESTAR DEB now!
10-day predictions


NORAD ID: 4028
Int'l Code: 1961-015JQ
Perigee: 633.3 km
Apogee: 781.6 km
Inclination: 66.8 °
Period: 98.8 minutes
Semi major axis: 7078 km
RCS: 0.0031 m2 (small)
Launch date: June 29, 1961
Source: United States (US)
Launch site: AIR FORCE EASTERN TEST RANGE (AFETR)

Note: This is SATELLITE DEBRIS
Your satellite tracking list
Your tracking list is empty




NASA's NSSDC Master Catalog

Two Line Element Set (TLE):
1 04028U 61015JQ  24144.42571621  .00004450  00000-0  92132-3 0  9993
2 04028  66.7541 250.4078 0104807 221.4554 137.8575 14.57795080263579
Source of the keplerian elements: AFSPC